Albert Lea, MN

2:26 AM CST on February 26, 2017 (GMT -0600)
Albert Lea Municipal

Weather History for KAEL - November, 2012

Change the Weather History Date:

Thursday, November 29, 2012

  Actual Average Record
Temperature  
Mean Temperature 32 °F -  
Max Temperature 44 °F 35 °F 64 °F (1998)
Min Temperature 19 °F 21 °F 8 °F (2013)
Degree Days  
Heating Degree Days 34    
Moisture  
Dew Point 25 °F    
Average Humidity 76    
Maximum Humidity 100    
Minimum Humidity 57    
Precipitation  
Precipitation 0.00 in - - ()
Sea Level Pressure  
Sea Level Pressure 30.02 in    
Wind  
Wind Speed 5 mph (ESE)    
Max Wind Speed 13 mph    
Max Gust Speed -    
Visibility 8 miles    
Events      
Averages and records for this station are not official NWS values.
T = Trace of Precipitation, MM = Missing Value Source: NWS Daily Summary

Daily Weather History Graph

Daily Weather History Graph

Search for Another Location

Airport or City:

Trip Planner

Search our weather history database for the weather conditions in past years. The results will help you decide how hot, cold, wet, or windy it might be!

Date:

Astronomy

Nov. 29, 2012 Rise Set
Actual Time 7:25 AM CST 4:38 PM CST
Civil Twilight 6:53 AM CST 5:10 PM CST
Nautical Twilight 6:17 AM CST 5:46 PM CST
Astronomical Twilight 5:43 AM CST 6:20 PM CST
Moon 5:41 PM CST (11/29) 8:12 AM CST (11/29)
Length of Visible Light 10h 16m
Length of Day
9h 12m
Full, 99% of the Moon is Illuminated
Nov 29
Full
Dec 6
Last Quarter
Dec 13
New
Dec 19
First Quarter
Dec 28
Full

Hourly Weather History & Observations

Time (CST) Temp. Windchill Dew Point Humidity Pressure Visibility Wind Dir Wind Speed Gust Speed Precip Events Conditions
12:11 AM 30.2 °F 23.4 °F 21.2 °F 69% 30.08 in 10.0 mi South 6.9 mph - N/A   Clear
12:30 AM 30.2 °F 22.6 °F 21.2 °F 69% 30.08 in 10.0 mi South 8.1 mph - N/A   Clear
12:50 AM 28.4 °F 21.2 °F 21.2 °F 74% 30.06 in 10.0 mi South 6.9 mph - N/A   Clear
1:11 AM 28.4 °F 21.2 °F 21.2 °F 74% 30.06 in 10.0 mi South 6.9 mph - N/A   Clear
1:30 AM 28.4 °F 20.4 °F 21.2 °F 74% 30.05 in 10.0 mi South 8.1 mph - N/A   Clear
1:50 AM 28.4 °F 21.2 °F 21.2 °F 74% 30.05 in 10.0 mi South 6.9 mph - N/A   Clear
2:10 AM 28.4 °F 21.2 °F 21.2 °F 74% 30.05 in 10.0 mi South 6.9 mph - N/A   Clear
2:30 AM 28.4 °F 22.2 °F 23.0 °F 80% 30.05 in 10.0 mi South 5.8 mph - N/A   Clear
2:51 AM 28.4 °F 22.2 °F 23.0 °F 80% 30.05 in 10.0 mi South 5.8 mph - N/A   Clear
3:31 AM 28.4 °F 23.3 °F 23.0 °F 80% 30.04 in 10.0 mi South 4.6 mph - N/A   Clear
3:50 AM 28.4 °F 22.2 °F 23.0 °F 80% 30.04 in 10.0 mi South 5.8 mph - N/A   Clear
4:11 AM 26.6 °F 22.6 °F 21.2 °F 80% 30.03 in 10.0 mi South 3.5 mph - N/A   Clear
4:31 AM 24.8 °F 20.5 °F 21.2 °F 86% 30.03 in 10.0 mi South 3.5 mph - N/A   Clear
4:50 AM 24.8 °F - 21.2 °F 86% 30.03 in 7.0 mi Calm Calm - N/A   Clear
5:10 AM 24.8 °F - 21.2 °F 86% 30.03 in 7.0 mi Calm Calm - N/A   Clear
5:31 AM 23.0 °F - 21.2 °F 93% 30.03 in 7.0 mi Calm Calm - N/A   Clear
5:50 AM 24.8 °F - 21.2 °F 86% 30.03 in 7.0 mi Calm Calm - N/A   Clear
6:10 AM 24.8 °F - 21.2 °F 86% 30.03 in 7.0 mi Calm Calm - N/A   Clear
6:31 AM 21.2 °F - 21.2 °F 100% 30.03 in 7.0 mi Calm Calm - N/A   Clear
6:50 AM 21.2 °F - 19.4 °F 93% 30.03 in 7.0 mi Calm Calm - N/A   Clear
7:10 AM 21.2 °F - 19.4 °F 93% 30.03 in 5.0 mi Calm Calm - N/A   Clear
7:31 AM 21.2 °F - 19.4 °F 93% 30.03 in 4.0 mi Calm Calm - N/A   Clear
7:50 AM 19.4 °F - 19.4 °F 100% 30.03 in 4.0 mi Calm Calm - N/A   Clear
8:10 AM 19.4 °F - 19.4 °F 100% 30.03 in 5.0 mi Calm Calm - N/A   Clear
8:30 AM 21.2 °F - 19.4 °F 93% 30.04 in 5.0 mi Calm Calm - N/A   Clear
8:51 AM 24.8 °F - 21.2 °F 86% 30.04 in 5.0 mi Calm Calm - N/A   Clear
9:10 AM 26.6 °F - 24.8 °F 93% 30.04 in 5.0 mi Calm Calm - N/A   Clear
9:31 AM 28.4 °F 24.6 °F 24.8 °F 86% 30.04 in 5.0 mi SSE 3.5 mph - N/A   Clear
9:50 AM 30.2 °F 26.7 °F 26.6 °F 86% 30.03 in 7.0 mi SE 3.5 mph - N/A   Clear
10:11 AM 33.8 °F 29.6 °F 26.6 °F 75% 30.03 in 7.0 mi SE 4.6 mph - N/A   Clear
10:30 AM 35.6 °F 30.7 °F 28.4 °F 75% 30.03 in 7.0 mi SSE 5.8 mph - N/A   Clear
10:51 AM 35.6 °F - 28.4 °F 75% 30.03 in 7.0 mi Calm Calm - N/A   Clear
11:10 AM 37.4 °F - 28.4 °F 70% 30.03 in 7.0 mi Calm Calm - N/A   Clear
11:31 AM 39.2 °F 37.0 °F 28.4 °F 65% 30.01 in 7.0 mi ENE 3.5 mph - N/A   Clear
11:51 AM 39.2 °F - 28.4 °F 65% 30.01 in 10.0 mi Calm Calm - N/A   Clear
12:10 PM 39.2 °F 37.0 °F 28.4 °F 65% 30.00 in 10.0 mi ESE 3.5 mph - N/A   Clear
12:31 PM 41.0 °F 38.0 °F 28.4 °F 61% 30.00 in 10.0 mi ESE 4.6 mph - N/A   Clear
12:51 PM 42.8 °F 40.1 °F 30.2 °F 61% 29.99 in 10.0 mi SE 4.6 mph - N/A   Clear
1:10 PM 42.8 °F 38.6 °F 30.2 °F 61% 29.98 in 10.0 mi ESE 6.9 mph - N/A   Clear
1:31 PM 42.8 °F 40.1 °F 30.2 °F 61% 29.98 in 10.0 mi ESE 4.6 mph - N/A   Clear
1:50 PM 44.6 °F 43.1 °F 30.2 °F 57% 29.98 in 10.0 mi East 3.5 mph - N/A   Clear
2:10 PM 44.6 °F 42.2 °F 30.2 °F 57% 29.98 in 10.0 mi ESE 4.6 mph - N/A   Clear
2:31 PM 44.6 °F - 30.2 °F 57% 29.98 in 10.0 mi Calm Calm - N/A   Clear
2:50 PM 44.6 °F - 30.2 °F 57% 29.98 in 10.0 mi Calm Calm - N/A   Clear
3:11 PM 44.6 °F 40.7 °F 30.2 °F 57% 29.97 in 10.0 mi East 6.9 mph - N/A   Clear
3:31 PM 44.6 °F 40.7 °F 30.2 °F 57% 29.97 in 10.0 mi ESE 6.9 mph - N/A   Clear
3:50 PM 42.8 °F 39.3 °F 30.2 °F 61% 29.98 in 10.0 mi ESE 5.8 mph - N/A   Clear
4:11 PM 42.8 °F 41.1 °F 30.2 °F 61% 29.98 in 10.0 mi ESE 3.5 mph - N/A   Clear
4:31 PM 39.2 °F 35.9 °F 30.2 °F 70% 29.98 in 10.0 mi ENE 4.6 mph - N/A   Clear
4:50 PM 37.4 °F 33.8 °F 28.4 °F 70% 29.98 in 7.0 mi East 4.6 mph - N/A   Clear
5:10 PM 39.2 °F 35.9 °F 28.4 °F 65% 29.98 in 10.0 mi East 4.6 mph - N/A   Clear
5:31 PM 37.4 °F 33.8 °F 28.4 °F 70% 29.99 in 10.0 mi ENE 4.6 mph - N/A   Clear
5:50 PM 35.6 °F 31.7 °F 28.4 °F 75% 30.00 in 7.0 mi North 4.6 mph - N/A   Clear
6:10 PM 35.6 °F 29.2 °F 26.6 °F 70% 30.00 in 7.0 mi ENE 8.1 mph - N/A   Clear
6:31 PM 35.6 °F 27.1 °F 28.4 °F 75% 29.99 in 7.0 mi ENE 12.7 mph - N/A   Clear
6:50 PM 35.6 °F 29.2 °F 28.4 °F 75% 30.00 in 7.0 mi ENE 8.1 mph - N/A   Clear
7:10 PM 35.6 °F 29.2 °F 28.4 °F 75% 30.00 in 7.0 mi East 8.1 mph - N/A   Clear
7:31 PM 35.6 °F 30.7 °F 26.6 °F 70% 30.01 in 7.0 mi ENE 5.8 mph - N/A   Clear
7:50 PM 33.8 °F 27.7 °F 26.6 °F 75% 30.01 in 7.0 mi ENE 6.9 mph - N/A   Clear
8:10 PM 33.8 °F 28.6 °F 26.6 °F 75% 30.01 in 7.0 mi East 5.8 mph - N/A   Clear
8:30 PM 33.8 °F 28.6 °F 26.6 °F 75% 30.02 in 7.0 mi ENE 5.8 mph - N/A   Clear
8:50 PM 33.8 °F 29.6 °F 26.6 °F 75% 30.01 in 7.0 mi NE 4.6 mph - N/A   Clear
9:11 PM 33.8 °F 27.7 °F 26.6 °F 75% 30.01 in 7.0 mi ENE 6.9 mph - N/A   Clear
9:30 PM 32.0 °F 26.4 °F 26.6 °F 80% 30.01 in 7.0 mi ENE 5.8 mph - N/A   Clear
9:51 PM 32.0 °F 28.7 °F 26.6 °F 80% 30.00 in 7.0 mi ENE 3.5 mph - N/A   Clear
10:11 PM 33.8 °F 27.0 °F 26.6 °F 75% 29.99 in 7.0 mi East 8.1 mph - N/A   Clear
10:30 PM 33.8 °F 26.4 °F 26.6 °F 75% 30.00 in 7.0 mi East 9.2 mph - N/A   Clear
10:51 PM 33.8 °F 27.0 °F 26.6 °F 75% 30.00 in 7.0 mi ENE 8.1 mph - N/A   Clear
11:11 PM 32.0 °F - 26.6 °F 80% 30.02 in 7.0 mi Calm Calm - N/A   Clear
11:30 PM 32.0 °F 26.4 °F 26.6 °F 80% 30.02 in 7.0 mi ENE 5.8 mph - N/A   Clear
11:51 PM 32.0 °F 24.2 °F 26.6 °F 80% 30.00 in 7.0 mi East 9.2 mph - N/A   Scattered Clouds